CHX42 EDXR-EDXR

Flight info

Callsign CHX42
Flight time 0h 30m
Altitude 2500
Route VFR
Aircraft EC45/L-VGD/A

Departure

Time 2026-04-30 12:30
Airport Rendsburg-Schachtholm Airfield (EDXR)

Arrival

Time 2026-04-30 13:00
Airport Rendsburg-Schachtholm Airfield (EDXR)
Time Latitude Longitude Altitude Speed Heading
2026-04-30 12:07 54.43907 11.19381 25 ft 0 kts 243°
2026-04-30 12:14 54.43906 11.19378 33 ft 2 kts 302°
2026-04-30 12:14 54.43900 11.19393 76 ft 4 kts 302°
2026-04-30 12:15 54.43892 11.19410 153 ft 3 kts 302°
2026-04-30 12:15 54.43879 11.19455 282 ft 4 kts 302°
2026-04-30 12:15 54.43966 11.19223 492 ft 61 kts 302°
2026-04-30 12:15 54.44304 11.18317 547 ft 117 kts 303°
2026-04-30 12:16 54.44811 11.16990 671 ft 143 kts 303°
2026-04-30 12:16 54.45377 11.15542 896 ft 148 kts 304°
2026-04-30 12:16 54.45961 11.14071 1085 ft 149 kts 304°
2026-04-30 12:16 54.46207 11.12382 1092 ft 153 kts 265°
2026-04-30 12:17 54.45784 11.08807 1086 ft 154 kts 258°
2026-04-30 12:17 54.45532 11.07042 1078 ft 152 kts 258°
2026-04-30 12:17 54.45282 11.05296 1079 ft 150 kts 258°
2026-04-30 12:18 54.45032 11.03562 1080 ft 149 kts 258°
2026-04-30 12:18 54.44781 11.01805 1076 ft 151 kts 258°
2026-04-30 12:18 54.44527 11.00068 1081 ft 150 kts 257°
2026-04-30 12:18 54.44275 10.98317 1081 ft 152 kts 258°
2026-04-30 12:19 54.44017 10.96552 1077 ft 153 kts 257°
2026-04-30 12:19 54.43758 10.94773 1076 ft 154 kts 257°
2026-04-30 12:19 54.43497 10.92989 1072 ft 153 kts 257°
2026-04-30 12:19 54.43241 10.91230 1068 ft 151 kts 257°
2026-04-30 12:20 54.42988 10.89489 1069 ft 149 kts 258°
2026-04-30 12:20 54.42735 10.87767 1071 ft 149 kts 257°
2026-04-30 12:20 54.42478 10.86045 1079 ft 149 kts 257°
2026-04-30 12:20 54.42221 10.84307 1074 ft 151 kts 257°
2026-04-30 12:21 54.41962 10.82556 1073 ft 151 kts 257°
2026-04-30 12:21 54.41703 10.80801 1071 ft 151 kts 257°
2026-04-30 12:21 54.41450 10.79046 1069 ft 152 kts 258°
2026-04-30 12:21 54.41193 10.77291 1071 ft 151 kts 257°
2026-04-30 12:22 54.40941 10.75567 1070 ft 150 kts 257°
2026-04-30 12:22 54.40687 10.73837 1071 ft 150 kts 257°
2026-04-30 12:22 54.40431 10.72114 1077 ft 149 kts 258°
2026-04-30 12:22 54.40170 10.70392 1074 ft 149 kts 257°
2026-04-30 12:23 54.39911 10.68663 1080 ft 151 kts 257°
2026-04-30 12:23 54.39649 10.66913 1071 ft 152 kts 257°
2026-04-30 12:23 54.39386 10.65158 1074 ft 152 kts 257°
2026-04-30 12:23 54.39126 10.63399 1078 ft 152 kts 257°
2026-04-30 12:24 54.38865 10.61637 1074 ft 152 kts 257°
2026-04-30 12:24 54.38608 10.59877 1073 ft 151 kts 257°
2026-04-30 12:24 54.38355 10.58132 1076 ft 150 kts 257°
2026-04-30 12:24 54.38099 10.56392 1073 ft 150 kts 257°
2026-04-30 12:25 54.37845 10.54655 1077 ft 150 kts 258°
2026-04-30 12:25 54.37594 10.52953 1078 ft 145 kts 257°
2026-04-30 12:25 54.37354 10.51291 1084 ft 145 kts 257°
2026-04-30 12:25 54.37111 10.49596 1094 ft 146 kts 257°
2026-04-30 12:26 54.36869 10.47903 1099 ft 148 kts 257°
2026-04-30 12:26 54.36622 10.46163 1102 ft 151 kts 257°
2026-04-30 12:26 54.36364 10.44416 1089 ft 149 kts 256°
2026-04-30 12:26 54.36054 10.42718 1091 ft 149 kts 253°
2026-04-30 12:27 54.35719 10.41057 1093 ft 146 kts 252°
2026-04-30 12:27 54.35377 10.39407 1098 ft 146 kts 252°
2026-04-30 12:27 54.35030 10.37743 1100 ft 151 kts 251°
2026-04-30 12:27 54.34681 10.36066 1092 ft 147 kts 251°
2026-04-30 12:28 54.34340 10.34422 1104 ft 147 kts 251°
2026-04-30 12:28 54.33994 10.32744 1107 ft 150 kts 251°
2026-04-30 12:28 54.33645 10.31050 1096 ft 151 kts 251°
2026-04-30 12:28 54.33295 10.29349 1096 ft 152 kts 251°
2026-04-30 12:29 54.32944 10.27641 1096 ft 152 kts 251°
2026-04-30 12:29 54.32595 10.25934 1092 ft 151 kts 251°
2026-04-30 12:29 54.32248 10.24233 1096 ft 152 kts 251°
2026-04-30 12:29 54.31939 10.22522 1096 ft 148 kts 257°
2026-04-30 12:30 54.31754 10.20816 1093 ft 149 kts 261°
2026-04-30 12:30 54.31718 10.19045 999 ft 148 kts 274°
2026-04-30 12:30 54.31800 10.17299 865 ft 146 kts 276°
2026-04-30 12:30 54.31907 10.15637 823 ft 135 kts 281°
2026-04-30 12:31 54.32240 10.14194 767 ft 125 kts 305°
2026-04-30 12:31 54.32921 10.13899 703 ft 104 kts 43°
2026-04-30 12:31 54.33248 10.14763 537 ft 81 kts 89°
2026-04-30 12:31 54.32852 10.15074 489 ft 71 kts 217°
2026-04-30 12:32 54.32710 10.14383 517 ft 60 kts 283°
2026-04-30 12:32 54.32913 10.13825 486 ft 52 kts 342°
2026-04-30 12:32 54.33108 10.14024 357 ft 22 kts 99°
2026-04-30 12:32 54.33104 10.14171 245 ft 8 kts 96°
2026-04-30 12:33 54.33103 10.14248 169 ft 5 kts 94°
2026-04-30 12:33 54.33103 10.14273 152 ft 1 kts 94°
2026-04-30 12:33 54.33102 10.14276 146 ft 0 kts 93°
2026-04-30 12:50 54.33102 10.14271 168 ft 3 kts 93°
2026-04-30 12:50 54.33104 10.14213 275 ft 5 kts 93°
2026-04-30 12:50 54.33108 10.14125 417 ft 8 kts 92°
2026-04-30 12:50 54.33089 10.14437 634 ft 62 kts 93°
2026-04-30 12:51 54.32642 10.14607 875 ft 104 kts 224°
2026-04-30 12:51 54.32489 10.13278 1173 ft 125 kts 269°
2026-04-30 12:51 54.32440 10.11576 1127 ft 150 kts 265°
2026-04-30 12:51 54.32257 10.09760 1107 ft 158 kts 256°
2026-04-30 12:52 54.31948 10.07992 1043 ft 152 kts 252°
2026-04-30 12:52 54.31625 10.06311 1030 ft 145 kts 252°
2026-04-30 12:52 54.31308 10.04693 1035 ft 141 kts 252°
2026-04-30 12:52 54.31003 10.03141 1041 ft 139 kts 252°
2026-04-30 12:53 54.30693 10.01565 1051 ft 137 kts 252°
2026-04-30 12:53 54.30389 10.00032 1076 ft 139 kts 251°
2026-04-30 12:53 54.30073 9.98447 1089 ft 143 kts 251°
2026-04-30 12:53 54.29748 9.96824 1081 ft 145 kts 251°
2026-04-30 12:54 54.29392 9.95201 1077 ft 147 kts 248°
2026-04-30 12:54 54.28993 9.93585 1067 ft 148 kts 247°
2026-04-30 12:54 54.28582 9.91968 1062 ft 148 kts 246°
2026-04-30 12:54 54.28170 9.90353 1062 ft 148 kts 246°
2026-04-30 12:55 54.27758 9.88744 1060 ft 148 kts 246°
2026-04-30 12:55 54.27345 9.87139 1059 ft 147 kts 246°
2026-04-30 12:55 54.26931 9.85537 1043 ft 147 kts 246°
2026-04-30 12:55 54.26519 9.83956 1042 ft 144 kts 246°
2026-04-30 12:56 54.26108 9.82376 1047 ft 146 kts 246°
2026-04-30 12:56 54.25693 9.80783 1048 ft 147 kts 246°
2026-04-30 12:56 54.25278 9.79193 1044 ft 146 kts 246°
2026-04-30 12:56 54.24863 9.77604 1042 ft 147 kts 246°
2026-04-30 12:57 54.24448 9.76015 1045 ft 147 kts 246°
2026-04-30 12:57 54.24031 9.74418 1041 ft 147 kts 246°
2026-04-30 12:57 54.23615 9.72827 1040 ft 147 kts 246°
2026-04-30 12:57 54.23196 9.71230 1040 ft 147 kts 246°
2026-04-30 12:58 54.22779 9.69637 1042 ft 147 kts 246°
2026-04-30 12:58 54.22361 9.68040 1041 ft 147 kts 246°
2026-04-30 12:58 54.21942 9.66441 1046 ft 147 kts 246°
2026-04-30 12:58 54.21523 9.64846 1040 ft 147 kts 246°
2026-04-30 12:59 54.21106 9.63263 1038 ft 146 kts 246°
2026-04-30 12:59 54.20693 9.61698 886 ft 147 kts 246°
2026-04-30 12:59 54.20320 9.60127 699 ft 132 kts 270°
2026-04-30 12:59 54.20891 9.59252 526 ft 122 kts 351°
2026-04-30 13:00 54.21547 9.59435 166 ft 79 kts 33°
2026-04-30 13:00 54.21862 9.59798 34 ft 22 kts 30°
2026-04-30 13:00 54.21880 9.59811 29 ft 4 kts 271°
2026-04-30 13:00 54.21842 9.59758 34 ft 12 kts 224°
2026-04-30 13:01 54.21779 9.59695 30 ft 2 kts 163°
2026-04-30 13:01 54.21746 9.59771 33 ft 18 kts 139°
2026-04-30 13:01 54.21704 9.59960 27 ft 7 kts 137°
2026-04-30 13:01 54.21695 9.59994 30 ft 2 kts 176°
2026-04-30 13:02 54.21692 9.59992 26 ft 0 kts 214°
2026-04-30 13:16 54.21692 9.59989 28 ft 2 kts 214°
2026-04-30 13:16 54.21699 9.59947 29 ft 9 kts 308°
2026-04-30 13:16 54.21743 9.59785 31 ft 14 kts 287°
2026-04-30 13:17 54.21768 9.59700 30 ft 7 kts 280°
2026-04-30 13:17 54.21610 9.59495 137 ft 64 kts 216°
2026-04-30 13:17 54.20660 9.59421 377 ft 128 kts 129°
2026-04-30 13:18 54.20135 9.61556 377 ft 159 kts 111°
2026-04-30 13:18 54.19028 9.64841 675 ft 162 kts 129°
2026-04-30 13:18 54.18306 9.66376 702 ft 167 kts 129°
2026-04-30 13:19 54.17571 9.67860 863 ft 161 kts 131°
2026-04-30 13:19 54.16893 9.69389 989 ft 161 kts 126°
2026-04-30 13:19 54.16241 9.70909 1037 ft 158 kts 126°
2026-04-30 13:19 54.15592 9.72420 1058 ft 159 kts 126°
2026-04-30 13:20 54.14947 9.73923 1058 ft 159 kts 126°
2026-04-30 13:20 54.14289 9.75455 1064 ft 158 kts 126°
2026-04-30 13:20 54.13678 9.77034 1068 ft 160 kts 122°
2026-04-30 13:20 54.13098 9.78614 1039 ft 157 kts 122°
2026-04-30 13:21 54.12544 9.80220 1027 ft 154 kts 119°
2026-04-30 13:21 54.12033 9.81791 1029 ft 153 kts 118°
2026-04-30 13:21 54.11524 9.83373 1033 ft 152 kts 118°
2026-04-30 13:22 54.10523 9.86518 1038 ft 152 kts 118°
2026-04-30 13:22 54.10023 9.88103 1039 ft 152 kts 118°
2026-04-30 13:22 54.09027 9.91268 1036 ft 151 kts 118°
2026-04-30 13:23 54.08530 9.92839 1042 ft 151 kts 118°
2026-04-30 13:23 54.07540 9.95976 915 ft 151 kts 117°
2026-04-30 13:24 54.06598 9.99155 464 ft 146 kts 113°
2026-04-30 13:24 54.05893 9.99904 512 ft 67 kts
2026-04-30 13:25 54.06488 9.99555 204 ft 16 kts 349°
2026-04-30 13:25 54.06550 9.99536 85 ft 0 kts 349°
2026-04-30 13:28 54.06529 9.99548 167 ft 5 kts 349°
2026-04-30 13:29 54.06846 9.99509 448 ft 82 kts 355°
2026-04-30 13:29 54.08470 10.00063 679 ft 147 kts 20°
2026-04-30 13:30 54.11358 10.01992 1049 ft 149 kts 22°
2026-04-30 13:31 54.13285 10.03318 1060 ft 149 kts 22°
2026-04-30 13:31 54.16197 10.05230 1060 ft 148 kts 19°
2026-04-30 13:32 54.18154 10.06351 1068 ft 150 kts 18°
2026-04-30 13:32 54.20137 10.07459 1074 ft 150 kts 18°
2026-04-30 13:33 54.22149 10.08570 1087 ft 155 kts 18°
2026-04-30 13:33 54.24186 10.09700 1090 ft 155 kts 18°
2026-04-30 13:34 54.25213 10.10271 1087 ft 155 kts 18°
2026-04-30 13:34 54.28294 10.11980 1091 ft 156 kts 18°
2026-04-30 13:35 54.29328 10.12552 1088 ft 156 kts 18°
2026-04-30 13:35 54.31281 10.13233 729 ft 127 kts
2026-04-30 13:36 54.32827 10.13484 487 ft 89 kts 30°
2026-04-30 13:36 54.33102 10.14063 311 ft 30 kts 91°
2026-04-30 13:36 54.33102 10.14275 146 ft 0 kts 94°
2026-04-30 13:55 54.33101 10.14275 149 ft 0 kts 81°
2026-04-30 13:55 54.33093 10.14219 240 ft 12 kts 81°
2026-04-30 13:56 54.33083 10.14106 400 ft 7 kts 81°
2026-04-30 13:56 54.33085 10.14068 549 ft 17 kts 81°
2026-04-30 13:56 54.33122 10.14782 654 ft 93 kts 95°
2026-04-30 13:56 54.32745 10.15842 1064 ft 111 kts 141°
2026-04-30 13:57 54.31936 10.16155 1123 ft 136 kts 191°
2026-04-30 13:57 54.31031 10.15477 1133 ft 151 kts 224°
2026-04-30 13:57 54.30587 10.13848 1135 ft 157 kts 266°
2026-04-30 13:57 54.30565 10.11948 1138 ft 161 kts 273°
2026-04-30 13:58 54.30606 10.10031 1128 ft 162 kts 274°
2026-04-30 13:58 54.30707 10.06169 1121 ft 163 kts 270°
2026-04-30 13:58 54.30644 10.04228 1120 ft 163 kts 266°
2026-04-30 13:59 54.30550 10.02282 1121 ft 165 kts 265°
2026-04-30 13:59 54.30446 10.00339 1114 ft 163 kts 265°
2026-04-30 13:59 54.30341 9.98410 1119 ft 163 kts 265°
2026-04-30 13:59 54.30157 9.96490 1109 ft 166 kts 256°
2026-04-30 14:00 54.29767 9.94623 1102 ft 167 kts 248°
2026-04-30 14:00 54.29264 9.92046 246 ft 31 kts 30°
2026-04-30 14:00 54.29370 9.92179 97 ft 2 kts 59°
2026-04-30 14:01 54.29421 9.92238 95 ft 6 kts 59°
2026-04-30 14:01 54.29423 9.92239 93 ft 0 kts 58°